Bat Cave, NC

8:41 PM EDT on August 28, 2016 (GMT -0400)
Asheville Regional

Weather History for KAVL - April, 2008

Change the Weather History Date:

Monday, April 28, 2008

  Actual Average Record
Temperature  
Mean Temperature 53 °F 59 °F  
Max Temperature 62 °F 71 °F 86 °F (1986)
Min Temperature 44 °F 46 °F 29 °F (1928)
Degree Days  
Heating Degree Days 12 7  
Month to date heating degree days 253 288  
Since 1 July heating degree days 3815 4060  
Cooling Degree Days 0 0  
Month to date cooling degree days 0 0  
Year to date cooling degree days 0 1  
Growing Degree Days 4 (Base 50)    
Moisture  
Dew Point 51 °F    
Average Humidity 75    
Maximum Humidity 100    
Minimum Humidity 50    
Precipitation  
Precipitation 0.40 in 0.11 in 1.95 in (2013)
Month to date precipitation 2.84 3.11  
Year to date precipitation 13.70 14.37  
Snow  
Snow 0.00 in 0.00 in 2.00 in (1928)
Month to date snowfall 0.0 0.7  
Since 1 July snowfall 3.8 9.9  
Snow Depth -    
Sea Level Pressure  
Sea Level Pressure 29.85 in    
Wind  
Wind Speed 10 mph (NNW)    
Max Wind Speed 23 mph    
Max Gust Speed 29 mph    
Visibility 7 miles    
Events Rain    
T = Trace of Precipitation, MM = Missing Value Source: NWS Daily Summary

Daily Weather History Graph

Daily Weather History Graph

Search for Another Location

Airport or City:

Trip Planner

Search our weather history database for the weather conditions in past years. The results will help you decide how hot, cold, wet, or windy it might be!

Date:

Astronomy

Apr. 28, 2008 Rise Set
Actual Time 6:41 AM EDT 8:14 PM EDT
Civil Twilight 6:14 AM EDT 8:41 PM EDT
Nautical Twilight 5:41 AM EDT 9:13 PM EDT
Astronomical Twilight 5:07 AM EDT 9:48 PM EDT
Moon 2:36 AM EDT (4/28) 12:55 PM EDT (4/28)
Length of Visible Light 14h 27m
Length of Day
13h 32m
Waning Gibbous, 49% of the Moon is Illuminated
Apr 28
Waning Gibbous
May 5
New
May 11
First Quarter
May 19
Full
May 27
Last Quarter

Hourly Weather History & Observations

Time (EDT) Temp. Dew Point Humidity Pressure Visibility Wind Dir Wind Speed Gust Speed Precip Events Conditions
12:46 AM 59.0 °F 59.0 °F 100% 29.97 in 4.0 mi Calm Calm - 0.10 in Rain Rain
12:54 AM 59.0 °F 59.0 °F 100% 29.92 in 4.0 mi Calm Calm - 0.10 in Rain Light Rain
1:10 AM 59.0 °F 59.0 °F 100% 29.96 in 6.0 mi Calm Calm - 0.01 in Rain Light Rain
1:23 AM 59.0 °F 57.2 °F 94% 29.95 in 7.0 mi Calm Calm - 0.01 in   Overcast
1:54 AM 59.0 °F 57.9 °F 96% 29.89 in 5.0 mi SE 4.6 mph - 0.01 in   Overcast
2:54 AM 59.0 °F 57.0 °F 93% 29.86 in 10.0 mi Calm Calm - 0.00 in Rain Light Rain
3:15 AM 57.2 °F 57.2 °F 100% 29.90 in 7.0 mi South 3.5 mph - 0.01 in Rain Light Rain
3:37 AM 57.2 °F 57.2 °F 100% 29.89 in 5.0 mi South 3.5 mph - 0.02 in Rain Light Rain
3:54 AM 57.9 °F 57.0 °F 97% 29.85 in 4.0 mi Calm Calm - 0.04 in Rain Rain
4:01 AM 57.2 °F 57.2 °F 100% 29.90 in 2.0 mi West 5.8 mph - 0.01 in Rain Rain
4:03 AM 57.2 °F 57.2 °F 100% 29.90 in 1.5 mi Calm Calm - 0.03 in Rain Heavy Rain
4:07 AM 57.2 °F 57.2 °F 100% 29.89 in 1.2 mi SE 3.5 mph - 0.11 in Rain Heavy Rain
4:14 AM 57.2 °F 57.2 °F 100% 29.89 in 2.0 mi South 9.2 mph - 0.18 in Rain Heavy Rain
4:25 AM 57.2 °F 57.2 °F 100% 29.89 in 5.0 mi South 5.8 mph - 0.22 in Rain Rain
4:54 AM 57.9 °F 57.0 °F 97% 29.83 in 8.0 mi South 11.5 mph - 0.28 in Rain Light Rain
5:54 AM 57.9 °F 57.0 °F 97% 29.81 in 10.0 mi Calm Calm - 0.00 in   Overcast
6:54 AM 57.0 °F 55.9 °F 96% 29.81 in 10.0 mi South 4.6 mph - 0.01 in Rain Light Rain
7:54 AM 57.0 °F 55.9 °F 96% 29.82 in 8.0 mi South 4.6 mph - 0.01 in Rain Light Rain
8:54 AM 57.0 °F 57.0 °F 100% 29.80 in 3.0 mi Calm Calm - 0.03 in Rain Light Rain
9:16 AM 57.2 °F 55.4 °F 94% 29.84 in 3.0 mi SSE 4.6 mph - N/A Rain Light Rain
9:54 AM 57.9 °F 57.0 °F 97% 29.79 in 3.0 mi Variable 3.5 mph - 0.01 in   Overcast
10:02 AM 57.2 °F 57.2 °F 100% 29.83 in 3.0 mi West 3.5 mph - N/A   Overcast
10:54 AM 57.0 °F 54.0 °F 89% 29.81 in 10.0 mi North 17.3 mph 24.2 mph N/A   Overcast
11:01 AM 55.4 °F 51.8 °F 88% 29.86 in 10.0 mi North 16.1 mph 24.2 mph 0.00 in Rain Light Rain
11:10 AM 55.4 °F 50.0 °F 82% 29.87 in 10.0 mi North 13.8 mph 21.9 mph 0.00 in   Overcast
11:52 AM 55.4 °F 48.2 °F 77% 29.86 in 10.0 mi North 18.4 mph 27.6 mph 0.00 in   Overcast
11:54 AM 55.0 °F 48.0 °F 77% 29.82 in 10.0 mi North 19.6 mph 27.6 mph 0.00 in   Overcast
12:27 PM 55.4 °F 48.2 °F 77% 29.86 in 10.0 mi North 17.3 mph 26.5 mph N/A   Mostly Cloudy
12:39 PM 57.2 °F 48.2 °F 72% 29.86 in 10.0 mi North 16.1 mph 25.3 mph N/A   Mostly Cloudy
12:54 PM 55.9 °F 48.0 °F 75% 29.82 in 10.0 mi North 17.3 mph 26.5 mph N/A   Mostly Cloudy
1:54 PM 57.0 °F 48.0 °F 72% 29.83 in 10.0 mi NNW 13.8 mph 23.0 mph N/A   Mostly Cloudy
2:01 PM 57.2 °F 46.4 °F 67% 29.87 in 10.0 mi NNW 18.4 mph 25.3 mph N/A   Partly Cloudy
2:54 PM 57.9 °F 45.0 °F 62% 29.80 in 10.0 mi North 18.4 mph 25.3 mph N/A   Mostly Cloudy
3:54 PM 60.1 °F 45.0 °F 57% 29.79 in 10.0 mi NNW 15.0 mph 21.9 mph N/A   Clear
4:54 PM 59.0 °F 44.1 °F 58% 29.77 in 10.0 mi North 13.8 mph 21.9 mph N/A   Clear
5:54 PM 60.1 °F 43.0 °F 53% 29.77 in 10.0 mi North 12.7 mph 18.4 mph N/A   Clear
6:54 PM 57.0 °F 41.0 °F 55% 29.79 in 10.0 mi NNW 17.3 mph - N/A   Clear
7:54 PM 55.0 °F 37.9 °F 53% 29.80 in 10.0 mi North 12.7 mph - N/A   Clear
8:54 PM 53.1 °F 37.9 °F 57% 29.83 in 10.0 mi North 8.1 mph - N/A   Partly Cloudy
9:54 PM 48.9 °F 39.0 °F 69% 29.86 in 10.0 mi NW 5.8 mph - N/A   Clear
10:54 PM 51.1 °F 34.0 °F 52% 29.86 in 10.0 mi WNW 6.9 mph - N/A   Clear
11:54 PM 50.0 °F 36.0 °F 59% 29.88 in 10.0 mi NNW 17.3 mph 20.7 mph N/A   Mostly Cloudy